Volver al catálogo

CZ-6A DEB

ActivoSSO
NORAD 56628·DEBRIS·🇨🇳 China

Lanzado Nov 11, 2022 desde Taiyuan Satellite Launch Center

Loading…

Próximos Pases (próximas 24 horas)

TLE

EnvejeciendoSource: Space-Track

Época: Sep 10, 2026, 05:23 UTC

1 56628U 22151AFC 26253.22445932 -.00000015  00000-0  16525-4 0  9997
2 56628  98.8798 241.0301 0072717 131.8234 228.9174 14.05246958124391

Sigue CZ-6A DEB en tiempo real con AllMySat

Download on the App Store